Voltar ao catálogo

STARLINK-36522

AtivoComunicaçõesVLEO
NORAD 67461·PAYLOAD·🇺🇸 United States

Lançado Jan 14, 2026 de Cape Canaveral Space Force Station

Loading…

Próximas Passagens (próximas 24 horas)

TLE

AtualizadoSource: CelesTrak SupGP

Época: Sep 14, 2026, 22:43 UTC

1 67461C 26008S   26257.94701389  .00003442  00000+0  12464-3 0  2572
2 67461  43.0013 216.4082 0001087 242.3780 223.6196 15.27584720    13

Acompanhe STARLINK-36522 em tempo real com AllMySat

Download on the App Store